Regional Weather Roundup
Issued by NWS

Home | Current Version | Previous Version | Text Only | Print | Product List | Glossary Off
Versions: 1 2 3 4 5 6 7 8 9 10 11 12 13 14 15 16 17 18 19 20 21 22 23 24 25 26 27 28 29 30 31 32 33 34 35 36 37 38 39 40 41 42 43 44 45 46 47 48 49 50

000
ASUS43 KDMX 270901
RWRIA

WEATHER ROUNDUP FOR IOWA
NATIONAL WEATHER SERVICE DES MOINES IA
400 AM CDT SAT MAY 27 2017

NOTE: "FAIR" INDICATES FEW OR NO CLOUDS BELOW 12,000 FEET WITH NO
SIGNIFICANT WEATHER AND/OR OBSTRUCTIONS TO VISIBILITY.

* - THESE STATIONS ARE NOT NWS STATIONS...THUS NOT UNDER NWS
QUALITY CONTROL.  THEY ALSO DO NOT REPORT WEATHER SUCH
AS PRECIPITATION OR FOG.

IAZ001>003-012>014-020>022-031>034-043>046-271000-
   NORTHWEST IOWA

CITY           SKY/WX    TMP DP  RH WIND       PRES   REMARKS
CARROLL *      CLOUDY    55  48  76 CALM      29.90S
CHEROKEE *     PTCLDY    48  46  93 CALM      29.91S
DENISON *      CLOUDY    54  46  76 E3        29.92S
LE MARS *      MOCLDY    52  48  87 CALM      29.90F
ORANGE CITY *  CLOUDY    61  43  51 NE5       29.90F
SHELDON *      CLOUDY    50  43  76 CALM      29.89F
SIOUX CITY     CLOUDY    54  48  80 E3        29.89F
SPENCER        CLEAR     49  46  90 CALM      29.91S
STORM LAKE *   PTCLDY    57  41  54 N6        29.91F
$$

IAZ055>058-069>071-079>083-090>094-271000-
   SOUTHWEST IOWA

CITY           SKY/WX    TMP DP  RH WIND       PRES   REMARKS
ATLANTIC *     CLOUDY    55  50  82 NE5       29.89S
AUDUBON *      CLOUDY    52  46  82 CALM      29.91S
CLARINDA *     CLOUDY    61  54  77 N7        29.89F
COUNCIL BLFS * CLOUDY    59  50  72 N8        29.89S
CRESTON *      CLOUDY    63  48  59 N10       29.89S
HARLAN  *      CLOUDY    57  48  72 N6        29.93S
LAMONI         CLOUDY    63  60  90 CALM      29.87S
RED OAK *      CLOUDY    59  52  77 N5        29.89R
SHENANDOAH *   CLOUDY    63  52  67 NE8       29.87F
$$

IAZ047>049-059>061-072>074-084-271000-
   CENTRAL IOWA

CITY           SKY/WX    TMP DP  RH WIND       PRES   REMARKS
AMES           FOG       54  54 100 CALM      29.88S VSB 1/4
ANKENY *       FOG       55  55 100 CALM      29.89S VSB<1/4
BOONE *        CLEAR     57  52  82 N5        29.89R
CHARITON *     CLOUDY    59  59 100 CALM      29.88S FOG
DES MOINES     PTCLDY    63  61  93 E5        29.88R
GRINNELL*      FOG       55  54  96 W3        29.91R VSB 1
KNOXVILLE *    CLOUDY    57  57 100 NW5       29.87R FOG
MARSHALLTOWN   FOG       54  54 100 CALM      29.88R VSB 1/4
NEWTON *       CLOUDY    57  57 100 CALM      29.88S
PERRY *          N/A     57  47  69 NW5       29.89S
$$

IAZ004>006-015-016-023>025-035-036-271000-
   NORTH CENTRAL IOWA

CITY           SKY/WX    TMP DP  RH WIND       PRES   REMARKS
ALGONA *       CLEAR     54  48  82 CALM      29.91S
CLARION *      CLEAR     54  50  87 CALM      29.90S
ESTHERVILLE    CLEAR     51  46  83 NW8       29.90S
FORT DODGE *   CLEAR     50  45  81 CALM      29.88F
MASON CITY     CLEAR     52  46  80 W6        29.90S
FOREST CITY *    N/A     48  41  76 W3        29.90S
WEBSTER CITY * CLEAR     54  46  76 NW6       29.88R
$$

IAZ007>011-017>019-026>030-037>042-050>054-066-271000-
   NORTHEAST IOWA

CITY           SKY/WX    TMP DP  RH WIND       PRES   REMARKS
CEDAR RAPIDS   FOG       53  53 100 CALM      29.87R VSB<1/4
CHARLES CITY * FOG       55  55 100 S5        29.89R VSB 1/4
CLINTON *      CLOUDY    57  56  96 E6        29.87S FOG
DUBUQUE        CLEAR     51  50  96 N3        29.87F
MONTICELLO *   FOG       52  52 100 CALM      29.88R VSB 1/4
OELWEIN *      FOG       57  57 100 CALM      29.90R VSB 1/4
WATERLOO       FOG       50  50 100 CALM      29.88S VSB<1/4
$$

IAZ064-065-067-068-078-271000-
   EAST CENTRAL IOWA

CITY           SKY/WX    TMP DP  RH WIND       PRES   REMARKS
DAVENPORT      FOG       57  56  96 NE6       29.88R VSB 3/4
IOWA CITY      FOG       54  53  97 CALM      29.89R VSB 1/2
MT. PLEASANT * FOG       55  55 100 CALM      29.88R VSB 1/4
MUSCATINE *    FOG       54  54 100 CALM      29.88R VSB<1/4
QUAD CITIES    CLOUDY    59  56  89 E5        29.86R FOG
$$

IAZ062-063-075>077-085>089-095>099-271000-
   SOUTHEAST IOWA

CITY           SKY/WX    TMP DP  RH WIND       PRES   REMARKS
BURLINGTON     FOG       56  56 100 CALM      29.87R VSB 1/4
FAIRFIELD *    FOG       55  55 100 CALM      29.87S VSB<1/4
FORT MADISON * FOG       57  57 100 CALM      29.88S VSB 1/4
KEOKUK *       CLOUDY    55  55 100 CALM      29.86F FOG
OSKALOOSA *      N/A     57  56  97 S3        29.88R FOG
OTTUMWA        CLOUDY    57  57 100 S5        29.88R FOG
WASHINGTON *   FOG       54  54 100 CALM      29.89R VSB<1/4
$$

ABBREVIATIONS USED IN REMARKS
   TC - TEMPERATURES IN CELSIUS
  WCI - WIND CHILL INDEX
   HX - HEAT INDEX
  VSB - VISIBILITY
$$





USA.gov is the U.S. government's official web portal to all federal, state and local government web resources and services.